Location: Sungai Laei
(2.6000°N, 113.7167°E)
Time: 11:43:33
(UTC+00:00)

Cosmos 2285 Rocket - Pass Details

Date: 22 May 2022
Orbit: 970 x 999 km, 74.0° (Epoch: 06 July)

Event Time Altitude Azimuth Distance (km) Brightness Sun altitude
Rises 12:06:43 0° 349° (NNW) 3,700 7.5 -23.4°
Reaches altitude 10° 12:09:16 10° 349° (N) 2,750 6.8 -24.0°
Maximum altitude 12:15:40 86° 78° (ENE) 996 3.9 -25.5°
Enters shadow 12:17:35 49° 163° (SSE) 1,259 4.3 -25.9°
